Satellite-Ground Cal/Val Region Overpasses Predictions

Prediction of Satellite NPP Overpassing Cal/Val Region: PacNW

Region Location: (Latitude: 10.00, Longitude: 139.50) to (Latitude: 22.70, Longitude: 165.60).

Table of predicted overpasses for the next 14.0 days since TLE Epoch: 12/14/2018
Interval Starting Time Starting Location Ending Time Ending Location
1 12/15/2018 02:52:26 ( 10.05, 156.61) 12/15/2018 02:56:01 ( 22.67, 153.61)
2 12/15/2018 15:24:18 ( 22.66, 153.84) 12/15/2018 15:27:53 ( 10.04, 150.84)
3 12/16/2018 02:33:23 ( 10.02, 161.37) 12/16/2018 02:36:58 ( 22.65, 158.37)
4 12/16/2018 15:05:16 ( 22.68, 158.60) 12/16/2018 15:08:52 ( 10.00, 155.59)
5 12/17/2018 02:15:01 ( 12.35, 165.59) 12/17/2018 02:17:57 ( 22.68, 163.12)
6 12/17/2018 03:55:51 ( 10.00, 140.76) 12/17/2018 03:57:23 ( 15.41, 139.51)
7 12/17/2018 14:46:15 ( 22.65, 163.35) 12/17/2018 14:49:50 ( 10.03, 160.35)
8 12/18/2018 03:36:49 ( 10.03, 145.51) 12/18/2018 03:40:24 ( 22.66, 142.51)
9 12/18/2018 14:30:11 ( 12.17, 165.60) 12/18/2018 14:30:48 ( 10.00, 165.10)
10 12/18/2018 16:08:42 ( 22.67, 142.74) 12/18/2018 16:12:17 ( 10.05, 139.74)
11 12/19/2018 03:17:47 ( 10.01, 150.27) 12/19/2018 03:21:23 ( 22.69, 147.26)
12 12/19/2018 15:49:41 ( 22.64, 147.49) 12/19/2018 15:53:16 ( 10.02, 144.49)
13 12/20/2018 02:58:45 ( 10.04, 155.02) 12/20/2018 03:02:20 ( 22.67, 152.02)
14 12/20/2018 15:30:38 ( 22.67, 152.25) 12/20/2018 15:34:13 ( 10.05, 149.25)
15 12/21/2018 02:39:43 ( 10.02, 159.78) 12/21/2018 02:43:19 ( 22.70, 156.77)
16 12/21/2018 15:11:36 ( 22.69, 157.01) 12/21/2018 15:15:12 ( 10.02, 154.00)
17 12/22/2018 02:20:41 ( 10.05, 164.53) 12/22/2018 02:24:16 ( 22.67, 161.53)
18 12/22/2018 14:52:34 ( 22.66, 161.76) 12/22/2018 14:56:09 ( 10.04, 158.76)
19 12/23/2018 03:43:09 ( 10.03, 143.92) 12/23/2018 03:46:44 ( 22.66, 140.92)
20 12/23/2018 14:34:37 ( 18.88, 165.59) 12/23/2018 14:37:08 ( 10.01, 163.51)
21 12/23/2018 16:15:02 ( 22.68, 141.15) 12/23/2018 16:16:57 ( 15.93, 139.51)
22 12/24/2018 03:24:06 ( 10.01, 148.68) 12/24/2018 03:27:42 ( 22.69, 145.67)
23 12/24/2018 15:56:00 ( 22.65, 145.90) 12/24/2018 15:59:35 ( 10.03, 142.90)
24 12/25/2018 03:05:05 ( 10.04, 153.43) 12/25/2018 03:08:40 ( 22.67, 150.43)
25 12/25/2018 15:36:58 ( 22.67, 150.66) 12/25/2018 15:40:33 ( 10.05, 147.66)
26 12/26/2018 02:46:03 ( 10.02, 158.19) 12/26/2018 02:49:38 ( 22.64, 155.19)
27 12/26/2018 15:17:55 ( 22.70, 155.43) 12/26/2018 15:21:31 ( 10.02, 152.41)
28 12/27/2018 02:27:01 ( 10.05, 162.94) 12/27/2018 02:30:36 ( 22.68, 159.94)
29 12/27/2018 14:58:54 ( 22.66, 160.17) 12/27/2018 15:02:29 ( 10.04, 157.18)
30 12/28/2018 02:10:33 ( 19.08, 165.59) 12/28/2018 02:11:34 ( 22.65, 164.71)
31 12/28/2018 03:49:29 ( 10.04, 142.33) 12/28/2018 03:52:52 ( 21.96, 139.51)
32 12/28/2018 14:39:51 ( 22.69, 164.94) 12/28/2018 14:43:27 ( 10.01, 161.92)


NCC Satellite Cal/Val Overpasses Prediction Service
